Theta_e
356 354 360 355 349 347 350 353 360 360 356 358 360 361 365 368 359 363 359 360 359 353
355 356 359 356 355 349 354 354 360 360 361 363 364 364 363 357 359 360 360 359 361 356
355 356 356 356 355 353 354 357 357 359 360 362 362 364 365 359 361 361 357 354 359 359
352 354 355 353 355 356 359 359 358 359 359 359 360 362 363 364 359 360 359 358 357 357
353 351 351 352 353 355 358 361 361 361 361 362 362 363 362 361 356 357 355 356 356 356
350 350 349 351 353 355 358 359 360 361 361 362 360 361 360 361 360 358 357 357 356 355
349 350 348 351 354 356 361 359 359 361 361 360 361 361 358 359 360 357 355 356 357 356
355 353 354 356 356 357 359 360 361 359 359 358 356 355 359 359 358 357 356 355 357 357
355 354 353 356 357 358 358 359 359 359 356 355 353 340 341 349 359 359 356 357 358 359
357 356 356 356 357 358 358 361 358 356 355 354 357 335 336 339 346 351 357 356 355 356
358 357 358 358 357 358 358 357 355 354 354 354 354 333 331 335 348 349 353 356 357 358
357 358 359 358 357 358 358 356 355 352 348 348 348 329 328 336 348 352 357 359 359 358
356 359 359 361 360 354 356 354 348 349 348 339 348 336 326 335 353 355 352 354 355 341
360 359 360 351 358 356 356 355 353 349 352 353 354 356 324 323 353 346 342 344 344 346
Wind_Speed
11 9 8 9 9 8 8 9 10 9 9 9 7 5 4 4 6 5 4 4 3 3
11 10 9 10 7 7 6 7 8 10 9 7 7 8 6 5 6 3 4 4 4 6
12 12 9 8 10 8 8 7 9 9 9 9 9 8 7 6 7 5 5 6 3 5
13 12 11 10 10 9 9 9 10 10 10 9 9 9 8 7 4 6 5 5 5 6
14 13 13 11 11 10 9 9 10 10 9 8 9 8 9 10 10 10 9 8 7 8
15 14 13 13 11 11 9 9 9 10 10 8 7 7 8 9 10 8 10 9 9 9
15 16 15 14 13 12 10 10 10 10 9 9 7 7 7 7 8 9 9 10 10 10
14 14 13 13 13 12 11 10 8 8 8 8 8 9 10 8 8 9 9 10 10 12
14 14 14 13 12 12 12 11 9 9 9 9 8 5 3 4 7 8 10 10 9 11
14 14 14 13 13 13 12 9 10 10 9 10 9 7 7 5 7 8 6 8 8 9
15 14 14 14 13 11 10 11 10 9 8 7 7 7 7 9 9 8 10 9 10 9
15 14 14 14 14 12 11 10 10 8 6 7 6 10 10 9 10 11 10 9 9 9
14 16 16 15 12 10 12 11 7 8 8 8 9 7 9 8 8 9 9 7 7 10
15 14 13 10 6 9 8 7 10 10 8 11 11 7 6 7 8 6 5 5 5 3
Wind_Direction
191 188 191 198 181 193 187 179 149 180 180 186 191 204 181 197 234 137 178 167 254 258
192 196 203 176 198 197 204 157 177 181 188 192 202 195 194 226 214 194 216 168 196 247
190 198 192 182 199 193 191 224 175 195 193 197 202 211 202 198 191 213 226 229 173 255
186 191 193 192 197 203 201 202 204 206 204 206 210 210 212 239 244 213 231 263 229 235
187 193 192 202 194 203 205 205 206 205 208 211 215 211 216 226 237 216 219 225 237 243
189 192 200 195 202 201 200 207 209 207 215 217 217 219 233 233 233 229 234 246 251 247
193 192 198 195 197 204 196 208 206 211 215 222 223 222 230 223 225 232 239 245 254 255
194 195 202 197 195 198 206 217 221 221 226 229 234 235 218 235 243 248 251 256 250 244
189 192 199 199 200 201 204 214 222 226 230 238 252 118 114 289 272 268 267 263 263 271
185 193 198 198 203 206 203 207 212 220 227 234 237 142 173 198 271 265 252 262 265 266
186 192 194 197 197 202 201 201 208 212 220 227 229 174 212 203 254 257 259 257 257 263
189 187 191 192 186 189 187 179 184 189 204 225 233 183 199 209 243 248 248 247 247 250
182 192 193 193 179 172 171 175 188 217 219 239 256 246 185 209 245 241 245 231 229 187
184 190 185 121 181 190 180 203 202 218 218 248 264 251 179 208 250 269 261 259 250 248